Location: La Bourdonni�re
(43.3573°N, 5.4923°E)
Time: 13:54:07
(UTC+00:00)

Daily predictions for brighter satellites

Satellite Brightness Start Highest point End
(mag) Time Altitude Azimuth Time Altitude Azimuth Time Altitude Azimuth
Cosmos 1943 4.0 19:12:46 10° NW 19:18:13 52° WSW 19:23:40 10° S
Cosmos 1844 Rocket 2.9 19:13:22 10° S 19:18:41 49° ESE 19:24:03 10° NE
Resurs 01 Rocket 3.0 19:16:29 10° ESE 19:20:03 24° ENE 19:23:37 10° NNE
FALCON 9 DEB 3.1 19:20:09 10° WNW 19:23:09 60° SW 19:26:08 10° SE
Cosmos 1486 Rocket 4.2 19:23:09 10° S 19:28:18 53° ESE 19:33:30 10° NNE
CZ-4C R/B 4.2 19:24:33 10° NNW 19:30:24 28° NE 19:37:02 10° E
FALCON 9 DEB 3.0 19:30:31 10° WNW 19:33:33 64° SW 19:36:23 11° SE
ERS-2 3.0 19:30:20 10° N 19:33:54 54° WNW 19:37:26 10° SSW
SL-4 R/B 2.3 19:30:11 10° WNW 19:34:32 78° SW 19:38:59 11° SE
SL-08 ROCKET BODY 4.3 19:31:42 10° N 19:37:38 75° E 19:43:27 10° SSE
Helios 1A Rocket 4.3 19:33:55 10° S 19:37:48 40° W 19:41:43 10° NNW
ATLAS 5 CENTAUR R/B 3.0 19:36:09 10° NNW 19:41:25 42° NE 19:47:08 12° ESE
Cosmos 1844 3.7 19:36:27 10° S 19:42:06 62° ESE 19:47:42 10° NNE
OBJECT-B 1.4 19:39:09 10° S 19:42:20 56° W 19:45:32 10° NNW
IRS-1A Rocket 4.4 19:44:29 10° SSE 19:50:15 88° WSW 19:56:09 10° NNW
Intercosmos 24 3.8 19:49:30 10° S 19:53:18 53° E 19:56:47 10° NNE
Cosmos 1833 Rocket 4.4 19:49:30 10° N 19:53:36 20° NE 19:57:42 10° E
Cosmos 1242 Rocket 3.0 19:52:35 10° SSE 19:55:58 40° E 19:59:20 10° NNE
Cosmos 1805 Rocket 3.5 19:56:13 10° N 20:00:35 85° E 20:04:55 10° S
FALCON 9 DEB 4.4 20:05:02 10° WNW 20:07:40 26° SW 20:09:21 16° S
Cosmos 1633 Rocket 3.7 20:04:09 10° N 20:08:17 38° ENE 20:10:42 21° SE
ARIANE 5 R/B 3.9 20:06:13 17° ESE 20:08:23 25° ENE 20:11:57 10° NNE
Cosmos 1386 Rocket 4.4 20:02:27 10° N 20:08:31 86° E 20:14:37 10° S
DELTA 2 R/B (1) 3.9 20:03:19 10° W 20:08:41 50° SSW 20:12:22 19° SE
Terra 3.8 20:06:40 11° E 20:08:57 15° ENE 20:11:31 10° NNE
CZ-2C R/B 4.0 20:05:08 10° NNE 20:09:26 44° E 20:13:08 14° S
USA 290 2.1 20:10:00 10° NNW 20:13:14 75° ENE 20:14:52 27° SSE
ERS-1 Rocket 4.4 20:10:41 16° ESE 20:13:17 24° ENE 20:17:14 10° NNE
IGS 5A 3.4 20:11:11 18° SSE 20:14:13 74° ENE 20:18:22 10° N
Resurs 1-3 4.3 20:12:11 10° S 20:16:27 52° W 20:20:45 10° NNW
Cosmos 1328 Rocket 4.1 20:14:51 21° SSE 20:17:22 40° E 20:21:31 10° NNE
Cosmos 1437 3.8 20:17:58 23° E 20:17:58 23° E 20:20:04 10° NE
Cosmos 1745 Rocket 4.1 20:11:52 10° N 20:18:04 79° W 20:24:12 10° S
Cosmos 1933 3.3 20:14:19 10° S 20:18:21 86° W 20:22:25 10° N
Cosmos 1503 Rocket 3.9 20:14:08 10° SSW 20:19:18 84° ESE 20:24:31 10° NNE
Cosmos 1709 Rocket 4.0 20:14:42 10° N 20:20:48 64° E 20:25:15 19° SSE
Cosmos 1437 Rocket 4.2 20:17:36 10° SW 20:21:14 39° WNW 20:24:58 10° N
X-37B 0.7 20:19:36 10° WNW 20:22:47 75° N 20:24:16 29° E
CARTOSAT-1 4.5 20:23:35 24° ESE 20:25:21 34° ENE 20:29:15 10° N
Cosmos 2082 Rocket 3.9 20:25:00 10° N 20:29:02 20° NE 20:32:17 13° E
Cosmos 1500 3.9 20:25:45 10° N 20:29:13 35° ENE 20:30:08 30° ESE
COSMOS 2406 4.2 20:24:29 10° N 20:29:39 35° NE 20:32:38 21° ESE
Ariane Rocket 4.2 20:26:18 10° SSW 20:30:58 38° W 20:35:42 10° NNW
Meteor 1-20 Rocket 4.4 20:27:01 10° NNW 20:32:37 71° W 20:37:10 15° S
Cosmos 1666 Rocket 3.5 20:30:27 10° N 20:34:52 90° NE 20:37:20 25° S
IRIS 4.2 20:33:26 10° W 20:35:50 47° S 20:35:51 47° S
Meteor 2-17 Rocket 4.4 20:31:08 10° N 20:37:20 90° WSW 20:41:51 19° S
Cosmos 2315 Rocket 4.0 20:31:36 11° S 20:37:50 79° E 20:44:15 10° N
Cosmos 1782 2.7 20:36:20 21° S 20:38:58 88° E 20:42:59 10° N
Landsat 7 4.0 20:35:42 20° S 20:38:58 72° WSW 20:43:44 10° NNW
USA 245 2.8 20:42:52 44° NNE 20:42:52 44° NNE 20:44:35 10° N
Cosmos 1271 Rocket 4.2 20:46:42 24° E 20:46:42 24° E 20:49:34 10° NE
SPOT 1/Viking Rocket 3.5 20:45:30 27° SSE 20:48:28 86° WSW 20:53:42 10° NNW
SJ 16-02 2.1 20:52:10 32° E 20:52:10 32° E 20:56:03 10° NE
Cosmos 1602 4.2 20:48:31 10° NNW 20:52:18 56° W 20:54:02 29° SSW
Cosmos 2278 Rocket 2.4 20:50:06 28° SSE 20:52:48 50° ESE 20:58:15 10° NE
Resurs 01 Rocket 3.0 20:53:04 14° SSW 20:56:22 34° W 21:00:26 10° NNW
Cosmos 2228 Rocket 4.2 21:01:58 28° E 21:01:58 28° E 21:05:33 10° NNE
H-2A R/B 4.1 21:00:59 10° NNE 21:04:39 37° E 21:04:39 37° E
NOSS 3-3 (A) 4.0 21:00:49 10° SW 21:06:31 75° NW 21:13:04 10° NE
NOSS 3-3 (C) 4.0 21:00:56 10° SW 21:06:38 75° NW 21:13:10 10° NE
Cosmos 1943 Rocket 4.4 21:11:10 10° ENE 21:11:10 10° ENE 21:11:15 10° ENE
USA 307 4.3 21:07:01 10° NW 21:10:56 33° NNE 21:12:48 23° ENE
ATLAS 2AS CENTAUR R/B 4.0 21:05:37 10° NNW 21:12:13 33° NE 21:16:52 16° E
Cosmos 1151 Rocket 4.3 21:09:49 13° SW 21:13:22 39° WNW 21:17:29 10° N
SL-4 R/B 4.3 21:11:00 10° W 21:13:43 16° SW 21:14:33 15° SW
Cosmos 1812 2.8 21:16:50 57° SW 21:17:29 73° W 21:21:22 10° N
BREEZE-M R/B 4.1 21:15:35 10° WNW 21:17:41 24° N 21:18:26 21° NNE
Meteor 1-10 Rocket 4.1 21:17:12 44° SSE 21:18:55 67° E 21:24:30 10° NNE
Cosmos 1536 4.1 21:16:11 10° NNE 21:19:22 27° ENE 21:19:22 27° ENE
CZ-4C R/B 3.0 21:12:35 10° NW 21:19:57 84° NE 21:23:48 36° SE
Iridium 4 Rocket 3.7 21:18:17 41° S 21:20:24 80° E 21:26:19 10° N
USA 308 4.0 21:20:30 10° NW 21:24:32 38° NNE 21:25:49 31° ENE
ATLAS 5 CENTAUR R/B 3.2 21:20:42 10° NW 21:26:12 43° WSW 21:28:41 30° SSW
Cosmos 1538 Rocket 3.9 21:22:14 10° NNW 21:27:38 85° ENE 21:28:51 55° SSE
Cosmos 2084 4.5 21:24:40 10° WSW 21:28:38 44° NW 21:32:43 10° NNE
Meteor 1-5 Rocket 4.1 21:23:48 10° NNW 21:29:11 74° W 21:30:46 46° S
SL-24 DEB 4.3 21:30:18 57° E 21:30:34 59° E 21:35:06 10° N
Milstar 3 4.1 21:21:16 10° SW 21:31:43 31° S 21:32:11 31° S
Cosmos 158 Rocket 4.0 21:27:14 10° NNW 21:32:02 55° ENE 21:32:38 51° E
Cosmos 1666 2.8 21:31:28 10° NNW 21:34:56 67° WNW 21:34:56 67° WNW
Cosmos 1515 Rocket 4.2 21:34:01 36° SW 21:35:27 51° WNW 21:39:46 10° N
Cosmos 1833 Rocket 2.7 21:32:30 10° NNW 21:38:09 74° WSW 21:39:27 53° S
Spot 2 Rocket 4.5 21:36:58 29° SW 21:38:48 39° W 21:43:31 10° NNW
Cosmos 1869 Rocket 3.7 21:37:14 10° N 21:41:16 58° ENE 21:41:16 58° ENE
SPOT 5 3.4 21:41:10 45° SSW 21:42:23 57° W 21:47:33 10° NNW
Cosmos 1743 4.4 21:40:20 10° NNE 21:42:43 24° NE 21:42:43 24° NE
ARIANE 5 R/B 3.9 21:43:44 28° WSW 21:44:43 31° W 21:48:35 10° NNW
Cosmos 1680 Rocket 4.2 21:40:00 10° N 21:45:02 41° ENE 21:45:47 39° E
Terra 1.8 21:45:33 64° SSW 21:46:07 71° WSW 21:50:52 10° NNW
ERS-1 Rocket 3.7 21:50:41 39° SW 21:51:48 45° W 21:56:37 10° NNW
Cosmos 1707 Rocket 4.4 21:59:37 39° NE 21:59:37 39° NE 22:02:50 10° NNE
Cosmos 2154 Rocket 3.9 21:52:24 10° N 21:58:47 89° W 22:00:11 57° S
X-37B 3.6 21:56:22 10° W 21:56:32 11° W 21:56:32 11° W
USA 305 3.3 22:01:53 10° NW 22:05:35 61° NNW 22:05:35 61° NNW
Cosmos 2184 Rocket 4.4 22:00:27 10° NNW 22:06:29 53° W 22:08:18 40° SW
Meteor 1-27 Rocket 3.9 22:12:02 54° SW 22:13:18 71° WNW 22:19:13 10° N
Cosmos 2082 Rocket 2.1 22:08:07 10° NNW 22:13:45 75° WSW 22:14:08 71° SSW
COSMOS 2406 4.0 22:08:47 10° NW 22:13:57 37° WSW 22:14:42 36° WSW
Cosmos 962 Rocket 4.3 22:10:12 10° N 22:16:20 74° E 22:17:03 66° SE
Cosmos 44 4.2 22:12:26 10° NNW 22:17:39 45° NE 22:18:21 43° ENE
Nadezhda 1 Rocket 4.3 22:16:05 44° SW 22:18:01 63° W 22:24:15 10° N
Cosmos 1898 Rocket 3.5 22:20:54 74° ENE 22:20:54 74° ENE 22:25:56 10° NNE
Cosmos 923 Rocket 3.9 22:15:22 10° NNW 22:20:38 77° WSW 22:20:38 77° WSW
USA 306 3.9 22:21:04 10° NW 22:24:02 44° WNW 22:24:02 44° WNW
SJ 16-02 3.3 22:29:06 20° W 22:30:40 25° WNW 22:34:22 10° N
Meteor 1-19 Rocket 4.4 22:33:42 55° ENE 22:33:42 55° ENE 22:38:30 10° NNE
Cosmos 1733 Rocket 3.8 22:29:02 10° N 22:32:19 48° NNE 22:32:19 48° NNE
Cosmos 2181 Rocket 3.9 22:34:44 67° ESE 22:35:01 68° E 22:41:07 10° NNE
Cosmos 2278 Rocket 4.0 22:32:21 10° WSW 22:37:08 27° NW 22:41:57 10° N
Cosmos 1238 Rocket 3.6 22:33:29 10° N 22:39:48 81° E 22:39:54 80° E
Cosmos 990 Rocket 4.3 22:40:06 57° W 22:40:29 59° WNW 22:45:42 10° NNE
Cosmos 1340 Rocket 4.2 22:40:42 10° NNW 22:43:27 36° NW 22:43:27 36° NW
Cosmos 2369 Rocket 3.1 22:48:04 36° ENE 22:48:04 36° ENE 22:52:06 10° NE
Cosmos 2366 rocket 3.9 22:43:04 10° N 22:49:15 74° E 22:49:36 72° ESE
NOSS 3-4 (A) 4.1 22:43:11 10° NW 22:50:06 54° WSW 22:50:58 52° SW
NOSS 3-4 (C) 4.1 22:43:17 10° NW 22:50:13 55° WSW 22:51:05 52° SW
Cosmos 967 Rocket 4.3 22:49:56 75° SW 22:50:30 88° WNW 22:56:50 10° NNE
Cosmos 2341 Rocket 4.0 22:44:44 10° NNW 22:51:06 70° W 22:51:45 65° SW
Cosmos 1943 Rocket 2.1 22:52:38 79° NE 22:52:38 79° NE 22:57:56 10° NNE
Meteor 2-9 Rocket 4.1 22:50:49 10° N 22:56:34 86° NE 22:56:34 86° NE
SeaSat 1 4.1 22:52:38 10° NE 22:55:08 24° ENE 22:55:08 24° ENE
USA 215 3.9 22:57:12 24° E 23:01:05 53° NNE 23:07:23 10° NW
ATLAS 2AS CENTAUR R/B 2.6 22:56:33 10° NW 23:03:49 71° WSW 23:04:17 69° SSW
RESURS DK-1 4.4 23:04:36 10° N 23:07:43 22° NE 23:07:43 22° NE
CZ-4C R/B 4.3 23:02:08 10° WNW 23:08:08 25° WSW 23:08:59 25° WSW
Cosmos 2218 Rocket 3.9 23:02:27 10° N 23:08:44 77° W 23:09:04 75° SW
Meteor 2-4 Rocket 3.8 23:09:23 68° ENE 23:09:23 68° ENE 23:14:43 10° NNE
Cosmos 1975 4.4 23:05:56 10° N 23:08:17 34° N 23:08:17 34° N
SL-24 R/B - RUBIN 2 4.4 23:05:03 10° NW 23:09:19 53° WNW 23:09:19 53° WNW
Cosmos 489 Rocket 4.3 23:05:41 10° NNW 23:11:57 90° WSW 23:12:08 85° SSE
Cosmos 1937 Rocket 4.4 23:26:03 39° WNW 23:26:18 40° WNW 23:31:10 10° N
Nadezhda 3 Rocket 4.1 23:28:06 63° E 23:28:13 63° E 23:34:22 10° NNE
ATLAS CENTAUR R/B 4.0 23:34:53 12° ENE 23:34:53 12° ENE 23:35:11 10° NE
ALOS 2 4.0 23:36:53 32° NW 23:36:53 32° NW 23:39:38 10° NNW
Cosmos 1607 4.0 23:36:38 65° ESE 23:36:38 65° ESE 23:42:50 10° NE
Thor Agena Rocket 3.7 23:31:57 10° NNE 23:36:39 72° NNE 23:36:39 72° NNE
Cosmos 1818 4.1 23:32:33 10° NW 23:36:53 52° WNW 23:36:53 52° WNW
Cosmos 1048 Rocket 4.3 23:34:14 10° NNW 23:39:11 63° NE 23:39:11 63° NE
Cosmos 2298 Rocket 4.3 23:41:55 61° NE 23:41:55 61° NE 23:46:25 10° NNE
Okean 1-7 4.2 23:42:48 40° N 23:42:48 40° N 23:45:37 10° N
SL-08 R/B 4.5 23:41:14 10° NNW 23:47:24 69° W 23:47:30 68° W
Resurs 1-4 Rocket 4.3 23:50:17 10° ENE 23:52:58 14° E 23:53:19 14° E
